COSMOS 2024 (ETALON 2)

Last updated on July 6, 2021, 3:43 p.m. UTC

1 20026U 89039C   21186.84894821 -.00000052  00000-0  00000-0 0  9999
2 20026  65.5475  12.1279 0018276 219.3715 156.6556  2.13204490249978
UTC
Height (km)
Latitude
Longitude
Inclination
Orbital Period
UTC large
Height (km)
Speed (km/s)
/
Latitude / Longitude
Inclination (degrees)
Orbital Period (minutes)
Azimuth
Elevation
Range (km)
Doppler Factor
iOS Compass Heading
iOS Angle